Columbus, GA

9:09 PM EST on February 21, 2017 (GMT -0500)
Columbus Metro

Weather History for KCSG - April, 2013

Change the Weather History Date:

Thursday, April 18, 2013

  Actual Average Record
Temperature  
Mean Temperature 73 °F 65 °F  
Max Temperature 84 °F 77 °F 91 °F (2002)
Min Temperature 61 °F 53 °F 37 °F (1956)
Degree Days  
Heating Degree Days 0 3  
Month to date heating degree days 46 71  
Since 1 July heating degree days 1752 2094  
Cooling Degree Days 8 3  
Month to date cooling degree days 59 36  
Year to date cooling degree days 92 63  
Growing Degree Days 22 (Base 50)    
Moisture  
Dew Point 60 °F    
Average Humidity 68    
Maximum Humidity 90    
Minimum Humidity 46    
Precipitation  
Precipitation 0.00 in 0.11 in 4.47 in (1969)
Month to date precipitation 2.17 2.26  
Year to date precipitation 21.20 16.01  
Sea Level Pressure  
Sea Level Pressure 30.00 in    
Wind  
Wind Speed 8 mph (SSE)    
Max Wind Speed 16 mph    
Max Gust Speed 22 mph    
Visibility 10 miles    
Events      
T = Trace of Precipitation, MM = Missing Value Source: NWS Daily Summary

Daily Weather History Graph

Daily Weather History Graph

Search for Another Location

Airport or City:

Trip Planner

Search our weather history database for the weather conditions in past years. The results will help you decide how hot, cold, wet, or windy it might be!

Date:

Astronomy

Apr. 18, 2013 Rise Set
Actual Time 7:06 AM EDT 8:11 PM EDT
Civil Twilight 6:41 AM EDT 8:37 PM EDT
Nautical Twilight 6:11 AM EDT 9:07 PM EDT
Astronomical Twilight 5:39 AM EDT 9:38 PM EDT
Moon 1:21 PM EDT (4/18) 2:21 AM EDT (4/18)
Length of Visible Light 13h 56m
Length of Day
13h 05m
First Quarter, 51% of the Moon is Illuminated
Apr 18
First Quarter
Apr 25
Full
May 2
Last Quarter
May 9
New
May 18
First Quarter

Hourly Weather History & Observations

Time (EDT) Temp. Heat Index Dew Point Humidity Pressure Visibility Wind Dir Wind Speed Gust Speed Precip Events Conditions
12:51 AM 70.0 °F - 60.1 °F 71% 30.07 in 10.0 mi Calm Calm - N/A   Clear
1:51 AM 66.9 °F - 61.0 °F 81% 30.05 in 10.0 mi East 3.5 mph - N/A   Clear
2:51 AM 66.0 °F - 60.1 °F 81% 30.04 in 10.0 mi Calm Calm - N/A   Clear
3:51 AM 66.0 °F - 60.1 °F 81% 30.04 in 10.0 mi Calm Calm - N/A   Clear
4:51 AM 64.9 °F - 59.0 °F 81% 30.03 in 10.0 mi ESE 3.5 mph - N/A   Clear
5:51 AM 63.0 °F - 59.0 °F 87% 30.03 in 10.0 mi East 4.6 mph - N/A   Clear
6:51 AM 61.0 °F - 57.9 °F 90% 30.04 in 10.0 mi Calm Calm - N/A   Clear
7:51 AM 63.0 °F - 59.0 °F 87% 30.04 in 10.0 mi East 6.9 mph - N/A   Clear
8:51 AM 66.0 °F - 60.1 °F 81% 30.05 in 10.0 mi ESE 6.9 mph - N/A   Clear
9:51 AM 72.0 °F - 62.1 °F 71% 30.05 in 10.0 mi SSE 9.2 mph - N/A   Clear
10:51 AM 75.9 °F - 61.0 °F 60% 30.06 in 10.0 mi South 9.2 mph - N/A   Mostly Cloudy
11:51 AM 77.0 °F - 60.8 °F 57% 30.06 in 10.0 mi SSW 10.4 mph 16.1 mph N/A   Mostly Cloudy
12:51 PM 78.1 °F - 60.1 °F 54% 30.02 in 10.0 mi South 11.5 mph - N/A   Mostly Cloudy
1:51 PM 82.0 °F 82.4 °F 60.1 °F 47% 30.00 in 10.0 mi South 11.5 mph 19.6 mph N/A   Partly Cloudy
2:51 PM 82.0 °F 82.1 °F 59.0 °F 45% 29.98 in 10.0 mi SSE 10.4 mph - N/A   Mostly Cloudy
3:51 PM 82.0 °F 82.4 °F 60.1 °F 47% 29.96 in 10.0 mi South 10.4 mph - N/A   Mostly Cloudy
4:51 PM 82.9 °F 82.8 °F 59.0 °F 44% 29.93 in 10.0 mi South 11.5 mph 19.6 mph N/A   Scattered Clouds
5:51 PM 82.9 °F 83.2 °F 60.1 °F 46% 29.92 in 10.0 mi South 15.0 mph - N/A   Mostly Cloudy
6:51 PM 82.0 °F 82.4 °F 60.1 °F 47% 29.92 in 10.0 mi South 10.4 mph - N/A   Clear
7:51 PM 80.1 °F 81.1 °F 61.0 °F 52% 29.92 in 10.0 mi South 8.1 mph - N/A   Mostly Cloudy
8:51 PM 78.1 °F - 61.0 °F 56% 29.91 in 10.0 mi South 10.4 mph - N/A   Scattered Clouds
9:51 PM 75.9 °F - 62.1 °F 62% 29.93 in 10.0 mi South 8.1 mph - N/A   Clear
10:51 PM 75.9 °F - 60.1 °F 58% 29.92 in 10.0 mi South 10.4 mph - N/A   Scattered Clouds
11:51 PM 75.0 °F - 60.1 °F 60% 29.92 in 10.0 mi SSW 9.2 mph 17.3 mph N/A   Mostly Cloudy